www.pogodaiklimat.ru

Погода и климат >> Архив погоды >> Пакистан >> Nawabshah


ПОГОДА в Nawabshah

  • Прогноз погоды в Nawabshah
  • Монитор погоды в Nawabshah
  • Климат города

АРХИВ ПОГОДЫ в Nawabshah

Время (UTC), дата Ветер
(напр.,м/с)
 
Видим.   Явления Облачность Т
(С)
Тd
(С)
f
(%)
Тe
(С)
Тes
(С)
Комфортность P
(гПа)
Po
(гПа)
Тmin
(С)
Tmax
(С)
R
(мм)
R24
(мм)
S
(см)
03 14.10 Ю 1 2000 м дым ясно +23.0 +16.5 67 +28 +30 душно 1005.2 1001.9 +19.1
06 14.10 штиль 0 4000 м мгла ясно +35.0 +16.3 33 +38 +54 опасность
солнечного
удара
1007.0 1003.7
09 14.10 С 3 4000 м мгла ясно +40.0 +13.8 21 +40 +50 очень
душно
1003.8 1004.0
12 14.10 С 1 4000 м мгла ясно +39.0 +9.2 17 +37 +39 очень
жарко
1002.3 999.1 +41.1
15 14.10 ЮВ 1 4000 м мгла ясно +30.0 +13.4 36 +31 +31 жарко 1003.6 1000.0
18 14.10 ЮВ 1 4000 м мгла ясно +26.0 +14.4 49 +28 +28 жарко 1005.1 1001.8
21 14.10 штиль 0 4000 м мгла ясно +22.0 +14.4 62 +25 +25 комфорт 1004.5 1005.0
00 15.10 ЮВ 1 2000 м дым ясно +19.0 +14.7 76 +22 +22 комфорт 1003.1 999.7
03 15.10 ЮВ 2 2000 м дым ясно +23.0 +17.4 71 +28 +30 душно 1005.4 1002.0 +18.5
06 15.10 ЮВ 3 4000 м дым ясно +34.0 +20.8 46 +41 +51 опасность
перегрева
1006.5 1003.2
09 15.10 4000 м ясно +40.0 +15.0 23 1004.9 1005.0
12 15.10 штиль 0 4000 м ясно +40.5 +11.2 18 +40 +41 очень
жарко
1002.8 999.6 +41.1
15 15.10 штиль 0 4000 м дым ясно +32.0 +16.2 39 +35 +35 очень
душно
1004.1 1000.0
18 15.10 ЮВ 1 4000 м дым ясно +27.0 +17.6 56 +31 +31 душно 1006.2 1002.9
21 15.10 штиль 0 4000 м дым ясно +24.0 +16.8 64 +28 +28 душно 1004.5 1000.0
00 16.10 штиль 0 2000 м дым ясно +22.0 +17.2 74 +26 +26 душно 1004.6 1001.2
03 16.10 штиль 0 2000 м дым ясно +23.0 +18.3 75 +29 +31 очень
душно
1006.7 1003.3 +21.1
06 16.10 СЗ 2 4000 м дым ясно +32.0 +18.2 44 +37 +48 очень
душно
1008.3 1005.0
09 16.10 С 3 4000 м ясно +37.0 +17.1 31 +40 +49 очень
душно
1005.7 1006.0
12 16.10 СЗ 4 4000 м дым ясно +36.0 +17.7 34 +39 +40 очень
душно
1004.8 1001.6 +38.5
15 16.10 СЗ 2 4000 м дым ясно +31.0 +18.8 48 +36 +36 очень
душно
1005.7 1006.0
18 16.10 СЗ 2 4000 м дым ясно +26.0 +18.2 62 +31 +31 очень
душно
1007.2 1003.9
00 17.10 штиль 0 2000 м дым ясно +21.0 +16.9 77 +24 +24 комфорт 1005.8 1002.4
03 17.10 штиль 0 4000 м дым ясно +22.5 +15.9 66 +27 +29 душно 1008.7 1005.3 +20.0
06 17.10 ЮВ 2 4000 м дым ясно +35.0 +14.1 29 +36 +48 очень
жарко
1009.5 1006.2
09 17.10 Ю 2 4000 м мгла ясно +39.5 +12.9 21 +39 +51 опасность
солнечного
удара
1007.7 1008.0
12 17.10 Ю 1 4000 м мгла ясно +39.0 +13.3 22 +39 +41 очень
жарко
1005.9 1002.8 +40.5
15 17.10 штиль 0 4000 м мгла ясно +31.0 +14.8 37 +33 +33 душно 1005.9 1000.0
18 17.10 ЮВ 2 4000 м дым ясно +26.0 +15.4 52 +29 +29 душно 1007.6 1004.4
21 17.10 штиль 0 2000 м дым ясно +24.0 +14.9 57 +27 +27 жарко 1006.6 1007.0
00 18.10 штиль 0 2000 м дым ясно +21.0 +16.0 73 +24 +24 комфорт 1005.5 1002.2
03 18.10 штиль 0 2000 м дым ясно +24.0 +15.8 60 +27 +29 жарко 1007.0 1003.7 +20.5
06 18.10 ЮВ 2 4000 м ясно +34.0 +19.9 44 +40 +53 опасность
солнечного
удара
1010.3 1007.0
09 18.10 Ю 2 4000 м ясно +40.0 +17.3 27 +43 +54 опасность
перегрева
1007.8 1000.0
12 18.10 Ю 2 4000 м ясно +40.0 +15.0 23 +41 +42 опасность
перегрева
1006.0 1002.8 +41.5
15 18.10 ЮВ 2 4000 м дым ясно +30.0 +18.5 50 +35 +35 очень
душно
1006.6 1007.0
18 18.10 ЮВ 2 4000 м дым ясно +26.0 +18.2 62 +31 +31 очень
душно
1007.8 1004.5
21 18.10 штиль 0 4000 м дым ясно +23.0 +17.4 71 +28 +28 душно 1006.8 1007.0
00 19.10 штиль 0 2000 м дым ясно +20.5 +16.4 77 +23 +23 комфорт 1005.8 1002.4
03 19.10 Ю 2 4000 м дым ясно +22.5 +16.8 70 +27 +28 душно 1008.6 1005.2 +19.5
06 19.10 ЮВ 2 4000 м ясно +30.9 +14.9 38 +33 +33 душно 1010.5 1007.3
09 19.10 С 3 4000 м ясно +39.0 +14.6 24 +40 +49 очень
душно
1007.5 1008.0
12 19.10 СЗ 1 4000 м ясно +40.0 +15.0 23 +41 +42 опасность
перегрева
1005.8 1002.6 +41.5
15 19.10 штиль 0 4000 м дым ясно +32.0 +19.1 46 +37 +37 очень
душно
1006.5 1007.0
18 19.10 штиль 0 4000 м дым ясно +26.0 +17.3 59 +30 +30 душно 1008.3 1005.0
21 19.10 штиль 0 4000 м дым ясно +23.0 +16.5 67 +28 +28 душно 1006.9 1000.0
00 20.10 штиль 0 2000 м дым ясно +21.0 +16.9 77 +24 +24 комфорт 1005.6 1002.2
03 20.10 штиль 0 2000 м дым ясно +23.0 +17.4 71 +28 +30 душно 1008.6 1005.2 +20.5
06 20.10 СЗ 2 4000 м мгла ясно +34.0 +14.8 32 +36 +48 душно 1010.5 1007.2
09 20.10 С 3 4000 м ясно +38.0 +8.8 17 +36 +45 очень
жарко
1007.6 1008.0
12 20.10 СЗ 2 4000 м ясно +36.0 +7.8 18 +34 +35 очень
жарко
1006.1 1002.9 +39.1
15 20.10 СЗ 2 4000 м дым ясно +30.0 +11.1 31 +30 +30 жарко 1008.1 1008.0
18 20.10 штиль 0 4000 м дым ясно +25.0 +13.1 48 +27 +27 жарко 1009.6 1006.3
21 20.10 штиль 0 4000 м дым ясно +23.0 +13.6 55 +26 +26 жарко 1007.7 1008.0
00 21.10 штиль 0 2000 м дым ясно +20.0 +14.9 72 +22 +22 комфорт 1007.3 1004.0

 

Местоположение метеостанции Nawabshah (Пакистан): широта 26.25 долгота 68.37 высота над уровнем моря 38 м.

В архиве по умолчанию представлена погода в Nawabshah за последнюю неделю. Архивные данные за месяц целиком и за предыдущие месяцы, начиная с января 2011 года, Вы можете получить, выбрав интересующий диапазон дат из раскрывающегося списка и нажав кнопку "Ввод!".

Внимание! Время в таблицах - всемирное. Для получения местного времени необходимо прибавить поправку, которая в Nawabshah равна 5 ч.

Смотрите также архив погоды в соседних городах и на ближайших метеорологических станциях:

Погода в Pad Idan (Пакистан) (71 км)
Погода в Hyderabad Airport (Пакистан) (97 км)
Погода в Chhor (Пакистан) (163 км)
Погода в Rohri (Пакистан) (166 км)
Погода в Badin (Пакистан) (188 км)
Погода в Karachi (Пакистан) (195 км)
Погода в Jacobabad (Пакистан) (228 км)
Погода в Khuzdar (Пакистан) (246 км)
Погода в Jaisalmer (Rajasthan, Индия) (264 км)
Погода в Barmer (Rajasthan, Индия) (306 км)

Пояснения к столбцам:

Ветер - указаны скорость ветра в м/с - средняя за 10 мин, порывы в срок и между сроками (в фигурных скобках) и направление, откуда дует ветер: С - северный, СВ - северо-восточный, В - восточный, ЮВ - юго-восточный, Ю - южный, ЮЗ - юго-западный, З - западный, СЗ - северо-западный.
Видимость - горизонтальная дальность видимости в метрах или километрах. При видимости от 1 до 10 км при отсутствии осадков обычно наблюдается дымка, при ухудшении видимости до 1 км и менее - туман. В сухую погоду видимость может ухудшаться дымом, пылью или мглою.
Явления - указаны атмосферные явления, наблюдавшиеся в срок или в последний час перед сроком; фигурными скобками обозначены явления, наблюдавшиеся между сроками (за 1-3 часа до срока); квадратными скобками обозначены град или гололедные отложения с указанием их диаметра в мм.
Облачность - указаны через наклонную черту общая и нижняя облачность в баллах и высота нижней границы облаков в метрах; квадратными скобками обозначены формы облаков: Ci - перистые, Cs - перисто-слоистые, Cc - перисто-кучевые, Ac - высококучевые, As - высокослоистые, Sc - слоисто-кучевые, Ns - слоисто-дождевые, Cu - кучевые, Cb - кучево-дождевые. Подробнее классификацию облаков см. в Атласе облаков (PDF).
T - Температура воздуха - температура, измеренная на высоте 2 м над землей.
Td - Температура точки росы - температура, при понижении до которой содержащийся в воздухе водяной пар достигнет насыщения.
f - Относительная влажность воздуха - влажноcть воздуха, измеренная на высоте 2 м над землей.
Te - Эффективная температура - температура, которую ощущает одетый по сезону человек в тени. Характеристика душности погоды. При расчете учитывается влияние влажности воздуха и скорости ветра на теплоощущения человека.
Tes - Эффективная температура на солнце - температура, которую ощущает человек, с поправкой на солнечный нагрев. Характеристика знойности погоды. Зависит от высоты солнца над горизонтом, облачности и скорости ветра. Ночью, в пасмурную погоду, а также при ветре 12 м/с и более поправка равна нулю.
P - Атмосферное давление - приведенное к уровню моря атмосферное давление.
Po - Атмосферное давление - измеренное на уровне метеостанции атмосферное давление.
Tmin - Минимальная температура - минимум температуры воздуха на высоте 2 м над землей.
Tmax - Максимальная температура - максимум температуры воздуха на высоте 2 м над землей.
R - Количество осадков - Количество выпавших осадков за период времени, мм. При наведении курсора мыши на число - период времени, за который выпало указанное количество осадков.
R24 - Количество осадков - Количество выпавших осадков за 24 часа, мм.
S - Снежный покров - Высота снежного покрова, см. При наведении курсора мыши на число - состояние снежного покрова и степень покрытия местности в баллах.